Gilze-Rijen, Netherlands

3:21 AM CET on February 08, 2016 (GMT +0100)
Gilze-Rijen Air Base

Weather History for EHGR - April, 2013

Change the Weather History Date:

Wednesday, April 10, 2013

  Actual Average (EHWO) Record (EHWO)
Temperature  
Mean Temperature 44 °F -  
Max Temperature 50 °F 59 °F - (-1)
Min Temperature 37 °F 41 °F - (-1)
Degree Days  
Heating Degree Days 22    
Moisture  
Dew Point 40 °F    
Average Humidity 88    
Maximum Humidity 100    
Minimum Humidity 71    
Precipitation  
Precipitation 0.00 in - - ()
Sea Level Pressure  
Sea Level Pressure 29.63 in    
Wind  
Wind Speed 5 mph ()    
Max Wind Speed 14 mph    
Max Gust Speed -    
Visibility 3.0 miles    
Events Rain    
Averages and records for this station are not official NWS values.
T = Trace of Precipitation, MM = Missing Value Source: Averaged Metar Reports

Daily Weather History Graph

Daily Weather History Graph

Search for Another Location

Airport or City:

Trip Planner

Search our weather history database for the weather conditions in past years. The results will help you decide how hot, cold, wet, or windy it might be!

Date:

Astronomy

Apr. 10, 2013 Rise Set
Actual Time 6:55 AM CEST 8:28 PM CEST
Civil Twilight 6:20 AM CEST 9:03 PM CEST
Nautical Twilight 5:37 AM CEST 9:46 PM CEST
Astronomical Twilight 4:50 AM CEST 10:34 PM CEST
Moon 6:40 AM CEST (4/10) 8:55 PM CEST (4/10)
Length of Visible Light 14h 43m
Length of Day
13h 33m
New Moon, 0% of the Moon is Illuminated
Apr 10
New Moon
Apr 18
First Quarter
Apr 25
Full
May 2
Last Quarter
May 10
New

Hourly Weather History & Observations

Time (CEST) Temp. Windchill Dew Point Humidity Pressure Visibility Wind Dir Wind Speed Gust Speed Precip Events Conditions
12:25 AM 41.0 °F 39.0 °F 39.2 °F 93% 29.50 in 3.7 mi SSE 3.5 mph - N/A   Overcast
12:31 AM 41.0 °F - 41.0 °F 100% 29.50 in 5.0 mi South 2.3 mph - N/A   Overcast
12:37 AM 41.0 °F - 41.0 °F 100% 29.50 in 4.3 mi South 2.3 mph - N/A   Overcast
12:55 AM 39.2 °F 37.0 °F 39.2 °F 100% 29.50 in 3.7 mi SSE 3.5 mph - N/A   Mostly Cloudy
1:25 AM 41.0 °F 38.0 °F 39.2 °F 93% 29.50 in 4.3 mi South 4.6 mph - N/A   Overcast
1:50 AM 41.0 °F 38.0 °F 41.0 °F 100% 29.50 in - SSW 4.6 mph - N/A   Overcast
1:55 AM 41.0 °F 38.0 °F 41.0 °F 100% 29.50 in 3.1 mi SSW 4.6 mph - N/A   Overcast
2:00 AM 41.0 °F 38.0 °F 41.0 °F 100% 29.50 in - SSW 4.6 mph - N/A   Overcast
2:04 AM 41.0 °F 38.0 °F 41.0 °F 100% 29.50 in 3.1 mi SSW 4.6 mph - N/A   Overcast
2:07 AM 41.0 °F 38.0 °F 41.0 °F 100% 29.50 in - SSW 4.6 mph - N/A   Overcast
2:13 AM 41.0 °F 38.0 °F 41.0 °F 100% 29.50 in 3.1 mi SSW 4.6 mph - N/A   Overcast
2:17 AM 41.0 °F 38.0 °F 41.0 °F 100% 29.50 in - SSW 4.6 mph - N/A   Overcast
2:25 AM 41.0 °F 38.0 °F 41.0 °F 100% 29.50 in - SSW 4.6 mph - N/A   Overcast
2:46 AM 42.8 °F 40.1 °F 41.0 °F 93% 29.50 in 3.1 mi SSW 4.6 mph - N/A   Overcast
2:50 AM 42.8 °F 40.1 °F 41.0 °F 93% 29.50 in - SSW 4.6 mph - N/A   Overcast
2:55 AM 42.8 °F 40.1 °F 41.0 °F 93% 29.53 in 3.1 mi SSW 4.6 mph - N/A   Overcast
3:08 AM 41.0 °F 38.0 °F 41.0 °F 100% 29.53 in 3.1 mi SSW 4.6 mph - N/A   Overcast
3:25 AM 42.8 °F 40.1 °F 42.8 °F 100% 29.50 in 3.1 mi SSW 4.6 mph - N/A   Overcast
3:55 AM 42.8 °F 40.1 °F 42.8 °F 100% 29.53 in 3.1 mi SSW 4.6 mph - N/A   Overcast
4:25 AM 42.8 °F 41.1 °F 42.8 °F 100% 29.53 in 3.1 mi SSW 3.5 mph - N/A Rain Light Rain
4:30 AM 42.8 °F 40.1 °F 42.8 °F 100% 29.53 in - SSW 4.6 mph - N/A Rain Light Rain
4:55 AM 42.8 °F 41.1 °F 42.8 °F 100% 29.53 in - SSW 3.5 mph - N/A   Light Drizzle
5:25 AM 42.8 °F 41.1 °F 42.8 °F 100% 29.53 in - SSW 3.5 mph - N/A   Light Drizzle
5:38 AM 42.8 °F 41.1 °F 42.8 °F 100% 29.53 in - South 3.5 mph - N/A Rain Light Rain
5:39 AM 42.8 °F 40.1 °F 42.8 °F 100% 29.53 in - South 4.6 mph - N/A Rain Light Rain
5:46 AM 42.8 °F 40.1 °F 42.8 °F 100% 29.53 in 2.2 mi South 4.6 mph - N/A Rain Light Rain
5:47 AM 42.8 °F 39.3 °F 42.8 °F 100% 29.53 in - South 5.8 mph - N/A   Drizzle
5:55 AM 42.8 °F 39.3 °F 42.8 °F 100% 29.53 in - South 5.8 mph - N/A   Light Drizzle
6:07 AM 42.8 °F 39.3 °F 42.8 °F 100% 29.53 in - South 5.8 mph - N/A   Mostly Cloudy
6:11 AM 42.8 °F 39.3 °F 42.8 °F 100% 29.53 in - South 5.8 mph - N/A   Mostly Cloudy
6:25 AM 42.8 °F 40.1 °F 42.8 °F 100% 29.53 in - SSW 4.6 mph - N/A   Overcast
6:42 AM 44.6 °F 42.2 °F 42.8 °F 93% 29.56 in - SSW 4.6 mph - N/A Rain Light Rain
6:46 AM 44.6 °F 42.2 °F 42.8 °F 93% 29.56 in - SSW 4.6 mph - N/A   Light Drizzle
6:55 AM 44.6 °F 42.2 °F 42.8 °F 93% 29.56 in 2.2 mi SSW 4.6 mph - N/A   Overcast
7:25 AM 44.6 °F 43.1 °F 42.8 °F 93% 29.56 in 1.7 mi SW 3.5 mph - N/A   Overcast
7:55 AM 44.6 °F 43.1 °F 42.8 °F 93% 29.56 in 1.4 mi SSW 3.5 mph - N/A   Light Drizzle
8:25 AM 44.6 °F - 44.6 °F 100% 29.59 in 1.6 mi SW 2.3 mph - N/A   Overcast
8:41 AM 44.6 °F 43.1 °F 44.6 °F 100% 29.59 in 1.5 mi WSW 3.5 mph - N/A   Overcast
8:55 AM 44.6 °F 42.2 °F 44.6 °F 100% 29.59 in 1.5 mi WSW 4.6 mph - N/A   Overcast
9:25 AM 44.6 °F 41.4 °F 44.6 °F 100% 29.59 in 1.6 mi WSW 5.8 mph - N/A   Overcast
9:55 AM 46.4 °F 43.5 °F 44.6 °F 93% 29.59 in - West 5.8 mph - N/A   Mostly Cloudy
10:20 AM 46.4 °F 42.9 °F 44.6 °F 93% 29.62 in - West 6.9 mph - N/A   Overcast
10:25 AM 46.4 °F 43.5 °F 44.6 °F 93% 29.62 in - West 5.8 mph - N/A   Overcast
10:29 AM 46.4 °F 43.5 °F 44.6 °F 93% 29.62 in - WSW 5.8 mph - N/A   Overcast
10:37 AM 46.4 °F 42.9 °F 44.6 °F 93% 29.62 in - WSW 6.9 mph - N/A   Overcast
10:43 AM 46.4 °F 42.9 °F 44.6 °F 93% 29.62 in - West 6.9 mph - N/A   Overcast
10:55 AM 46.4 °F 42.4 °F 44.6 °F 93% 29.62 in - West 8.1 mph - N/A   Mostly Cloudy
11:00 AM 46.4 °F 41.9 °F 42.8 °F 87% 29.62 in - West 9.2 mph - N/A   Mostly Cloudy
11:12 AM 46.4 °F 41.9 °F 42.8 °F 87% 29.65 in - West 9.2 mph - N/A   Mostly Cloudy
11:15 AM 46.4 °F 41.9 °F 42.8 °F 87% 29.65 in - West 9.2 mph - N/A   Mostly Cloudy
11:16 AM 48.2 °F - 44.6 °F 87% 29.65 in 3.1 mi West 8.1 mph - N/A   Overcast
11:25 AM 48.2 °F - 42.8 °F 82% 29.65 in - West 8.1 mph - N/A   Overcast
11:38 AM 46.4 °F 41.5 °F 42.8 °F 87% 29.65 in - West 10.4 mph - N/A   Overcast
11:43 AM 46.4 °F 40.7 °F 42.8 °F 87% 29.65 in - WNW 12.7 mph - N/A   Mostly Cloudy
11:44 AM 46.4 °F 40.7 °F 42.8 °F 87% 29.65 in - West 12.7 mph - N/A   Mostly Cloudy
11:55 AM 46.4 °F 41.9 °F 42.8 °F 87% 29.65 in - West 9.2 mph - N/A   Overcast
12:08 PM 46.4 °F 42.4 °F 42.8 °F 87% 29.65 in - West 8.1 mph - N/A   Overcast
12:25 PM 48.2 °F - 42.8 °F 82% 29.65 in 3.1 mi WSW 9.2 mph - N/A   Overcast
12:41 PM 46.4 °F 41.1 °F 42.8 °F 87% 29.65 in - West 11.5 mph - N/A   Overcast
12:47 PM 46.4 °F 40.7 °F 41.0 °F 81% 29.65 in 3.1 mi WNW 12.7 mph - N/A   Overcast
12:49 PM 46.4 °F 40.7 °F 41.0 °F 81% 29.68 in 3.1 mi WNW 12.7 mph - N/A   Overcast
12:55 PM 46.4 °F 41.1 °F 41.0 °F 81% 29.68 in 3.1 mi West 11.5 mph - N/A   Overcast
12:56 PM 48.2 °F - 42.8 °F 82% 29.68 in 3.1 mi West 9.2 mph - N/A   Overcast
1:09 PM 46.4 °F 42.9 °F 41.0 °F 81% 29.68 in 3.1 mi West 6.9 mph - N/A   Mostly Cloudy
1:14 PM 46.4 °F 42.9 °F 41.0 °F 81% 29.68 in 3.1 mi WSW 6.9 mph - N/A   Overcast
1:25 PM 48.2 °F - 41.0 °F 76% 29.68 in 3.7 mi WSW 6.9 mph - N/A   Overcast
1:37 PM 48.2 °F - 42.8 °F 82% 29.68 in 3.1 mi West 9.2 mph - N/A   Mostly Cloudy
1:39 PM 48.2 °F - 42.8 °F 82% 29.68 in - WSW 9.2 mph - N/A   Mostly Cloudy
1:45 PM 48.2 °F - 42.8 °F 82% 29.68 in 3.1 mi WSW 9.2 mph - N/A   Mostly Cloudy
1:55 PM 48.2 °F - 41.0 °F 76% 29.68 in - West 9.2 mph - N/A   Haze
2:13 PM 48.2 °F - 41.0 °F 76% 29.68 in 3.1 mi West 10.4 mph - N/A   Haze
2:17 PM 50.0 °F - 42.8 °F 76% 29.68 in - West 11.5 mph - N/A   Haze
2:20 PM 50.0 °F - 42.8 °F 76% 29.68 in 3.1 mi West 13.8 mph - N/A   Haze
2:25 PM 48.2 °F - 41.0 °F 76% 29.68 in - West 13.8 mph - N/A   Haze
2:44 PM 46.4 °F 41.1 °F 41.0 °F 81% 29.71 in - West 11.5 mph - N/A   Haze
2:55 PM 46.4 °F 40.7 °F 41.0 °F 81% 29.71 in - West 12.7 mph - N/A   Haze
3:03 PM 46.4 °F 40.7 °F 41.0 °F 81% 29.71 in - West 12.7 mph - N/A   Haze
3:25 PM 44.6 °F 38.8 °F 41.0 °F 87% 29.71 in 1.9 mi West 11.5 mph - N/A   Haze
3:35 PM 46.4 °F 41.5 °F 41.0 °F 81% 29.71 in - West 10.4 mph - N/A   Haze
3:48 PM 44.6 °F 39.7 °F 39.2 °F 81% 29.71 in - West 9.2 mph - N/A   Haze
3:55 PM 46.4 °F 41.9 °F 39.2 °F 76% 29.71 in - West 9.2 mph - N/A   Haze
4:15 PM 46.4 °F 41.5 °F 39.2 °F 76% 29.71 in 3.1 mi West 10.4 mph - N/A   Haze
4:16 PM 46.4 °F 41.5 °F 39.2 °F 76% 29.71 in - West 10.4 mph - N/A   Haze
4:18 PM 46.4 °F 41.5 °F 39.2 °F 76% 29.71 in - West 10.4 mph - N/A   Haze
4:25 PM 46.4 °F 41.5 °F 39.2 °F 76% 29.71 in 3.1 mi West 10.4 mph - N/A   Haze
4:30 PM 46.4 °F 41.5 °F 39.2 °F 76% 29.71 in 3.1 mi West 10.4 mph - N/A   Haze
4:41 PM 46.4 °F 41.9 °F 37.4 °F 71% 29.74 in 3.1 mi West 9.2 mph - N/A   Haze
4:55 PM 46.4 °F 41.5 °F 37.4 °F 71% 29.74 in 3.1 mi WSW 10.4 mph - N/A   Haze
5:25 PM 46.4 °F 42.4 °F 37.4 °F 71% 29.74 in 3.7 mi West 8.1 mph - N/A   Haze
5:55 PM 46.4 °F 41.9 °F 37.4 °F 71% 29.74 in 3.7 mi West 9.2 mph - N/A   Haze
6:25 PM 46.4 °F 43.5 °F 37.4 °F 71% 29.74 in 3.7 mi West 5.8 mph - N/A   Haze
6:55 PM 46.4 °F 42.9 °F 37.4 °F 71% 29.74 in 3.1 mi WSW 6.9 mph - N/A   Haze
7:25 PM 44.6 °F 42.2 °F 35.6 °F 71% 29.74 in 3.1 mi WSW 4.6 mph - N/A   Haze
7:55 PM 44.6 °F 43.1 °F 35.6 °F 71% 29.74 in 3.1 mi WSW 3.5 mph - N/A   Haze
8:20 PM 42.8 °F - 35.6 °F 76% 29.71 in - NW 2.3 mph - N/A   Haze
8:25 PM 41.0 °F - 33.8 °F 76% 29.71 in 3.1 mi NNW 2.3 mph - N/A   Haze
8:28 PM 41.0 °F - 35.6 °F 81% 29.71 in - NNW 1.2 mph - N/A   Haze
8:34 PM 39.2 °F - 33.8 °F 81% 29.71 in 3.1 mi Calm Calm - N/A   Haze
8:38 PM 39.2 °F - 33.8 °F 81% 29.71 in - SSW 1.2 mph - N/A   Haze
8:55 PM 39.2 °F - 33.8 °F 81% 29.71 in - South 2.3 mph - N/A   Haze
9:06 PM 39.2 °F - 35.6 °F 87% 29.71 in - Calm Calm - N/A   Mist
9:10 PM 37.4 °F - 32.0 °F 81% 29.71 in - Calm Calm - N/A   Mist
9:14 PM 37.4 °F - 32.0 °F 81% 29.71 in - NE 1.2 mph - N/A   Mist
9:25 PM 37.4 °F - 33.8 °F 87% 29.71 in 2.2 mi NE 1.2 mph - N/A   Mist
9:38 PM 37.4 °F - 33.8 °F 87% 29.71 in - East 2.3 mph - N/A   Mist
9:42 PM 37.4 °F - 33.8 °F 87% 29.71 in - East 2.3 mph - N/A   Mist
9:46 PM 37.4 °F - 33.8 °F 87% 29.71 in - East 2.3 mph - N/A   Partly Cloudy
9:55 PM 37.4 °F - 33.8 °F 87% 29.71 in - ESE 2.3 mph - N/A   Overcast
10:06 PM 37.4 °F 34.9 °F 33.8 °F 87% 29.71 in - East 3.5 mph - N/A   Overcast
10:07 PM 37.4 °F - 35.6 °F 93% 29.71 in - ESE 2.3 mph - N/A   Overcast
10:25 PM 39.2 °F - 35.6 °F 87% 29.71 in - East 2.3 mph - N/A   Overcast
10:55 PM 41.0 °F 39.0 °F 37.4 °F 87% 29.71 in - East 3.5 mph - N/A   Mostly Cloudy
10:59 PM 41.0 °F 39.0 °F 37.4 °F 87% 29.68 in - East 3.5 mph - N/A   Mostly Cloudy
11:25 PM 41.0 °F 37.1 °F 37.4 °F 87% 29.68 in - ESE 5.8 mph - N/A   Partly Cloudy
11:38 PM 41.0 °F 37.1 °F 37.4 °F 87% 29.68 in - ESE 5.8 mph - N/A   Scattered Clouds
11:44 PM 41.0 °F 37.1 °F 37.4 °F 87% 29.68 in - East 5.8 mph - N/A   Scattered Clouds
11:45 PM 41.0 °F 37.1 °F 37.4 °F 87% 29.68 in - East 5.8 mph - N/A   Mostly Cloudy
11:55 PM 41.0 °F 37.1 °F 37.4 °F 87% 29.68 in 2.2 mi ESE 5.8 mph - N/A   Mostly Cloudy